Hourly Data Report for November 11, 2003

TORONTO CITY
ONTARIO

43°40'00.000" N
79°24'00.000" W
112.50 m
6158355
71508
XTO

Download Data

Hourly Data (November 2003)
Hourly Data Report for November 11, 2003
TIME
LST
Temp Definition
°C
Dew Point Definition
°C
Rel Hum Definition
%
Precip. Amount Definition
mm

Wind Dir Definition
10's deg

Wind Spd Definition
km/h
Visibility Definition
km
Stn Press Definition
kPa
Hmdx Definition


Wind Chill Definition


Weather Definition


00:00 5.4 0.5 71   LegendMM LegendMM LegendMM 100.94     LegendNANA
01:00 5.8 0.6 69   LegendMM LegendMM LegendMM 100.88     LegendNANA
02:00 5.7 1.0 72   LegendMM LegendMM LegendMM 100.73     LegendNANA
03:00 6.0 0.5 68   LegendMM LegendMM LegendMM 100.62     LegendNANA
04:00 6.2 1.3 71   LegendMM LegendMM LegendMM 100.45     LegendNANA
05:00 6.7 1.5 69   LegendMM LegendMM LegendMM 100.34     LegendNANA
06:00 6.0 2.8 80   LegendMM LegendMM LegendMM 100.26     LegendNANA
07:00 5.3 3.7 89   LegendMM LegendMM LegendMM 100.06     LegendNANA
08:00 5.2 4.5 95   LegendMM LegendMM LegendMM 99.93     LegendNANA
09:00 5.8 5.1 95   LegendMM LegendMM LegendMM 99.83     LegendNANA
10:00 7.0 6.6 97   LegendMM LegendMM LegendMM 99.67     LegendNANA
11:00 8.4 8.1 98   LegendMM LegendMM LegendMM 99.59     LegendNANA
12:00 9.6 9.3 98   LegendMM LegendMM LegendMM 99.54     LegendNANA
13:00 10.3 9.9 97   LegendMM LegendMM LegendMM 99.48     LegendNANA
14:00 11.8 9.5 86   LegendMM LegendMM LegendMM 99.49     LegendNANA
15:00 11.8 8.5 80   LegendMM LegendMM LegendMM 99.54     LegendNANA
16:00 12.0 8.5 79   LegendMM LegendMM LegendMM 99.57     LegendNANA
17:00 12.1 8.2 77   LegendMM LegendMM LegendMM 99.67     LegendNANA
18:00 12.0 8.3 78   LegendMM LegendMM LegendMM 99.67     LegendNANA
19:00 11.3 8.4 82   LegendMM LegendMM LegendMM 99.73     LegendNANA
20:00 11.4 8.4 82   LegendMM LegendMM LegendMM 99.75     LegendNANA
21:00 10.9 8.8 87   LegendMM LegendMM LegendMM 99.73     LegendNANA
22:00 10.1 8.7 91   LegendMM LegendMM LegendMM 99.72     LegendNANA
23:00 9.8 8.6 92   LegendMM LegendMM LegendMM 99.69     LegendNANA

Notes on Data Quality.

Legend

  • E = Estimated
  • M = Missing
  • NA = Not Available*
  • [empty] = Indicates an unobserved value
Date modified: